カタログに戻る

CZ-6A DEB

運用中PO
NORAD 61147·DEBRIS·🇨🇳 China

打ち上げ Aug 6, 2024 から Taiyuan Satellite Launch Center

Loading…

次のパス (今後24時間)

TLE

最新Source: Space-Track

元期: Sep 13, 2026, 17:22 UTC

1 61147U 24140QR  26256.72393915  .00000110  00000-0  52771-4 0  9998
2 61147  88.9596 262.8512 0084522 305.5131  53.8190 14.10483989106090

AllMySatでCZ-6A DEBをリアルタイム追跡

Download on the App Store